AEROCUBE 4.5B

Last updated on Thu Nov 21 2024 00:03:39 GMT+0000 (Coordinated Universal Time)

1 38768U 12048L 24325.28967159 .00106615 00000+0 17342-2 0 9997 2 38768 64.6470 78.6447 0072676 315.6472 43.8859 15.49100299285375
UTC large
Height (km)
Speed (km/s)
/
Latitude / Longitude
Inclination (degrees)
Orbital Period (minutes)
Azimuth
Elevation
Range (km)
Doppler Factor

Next 0 passes for location: London (51.5072 / 0.1276)

Sorry there are no passes over London.